#timestamp,LO_Frequency,Hit,StdDev 
1583197215.2,286047003.7,N
1583197235.1,286047005.8,N
1583197236.0,286047005.8,N
1583197255.8,286047003.9,N
1583197275.7,286047002.5,N
1583197295.5,286047002.7,N
1583197315.3,286047002.1,N
1583197335.2,286047002.5,N
1583197355.0,286047002.4,N
1583197355.9,286047002.4,N
1583197375.8,286047004.1,N
1583197395.6,286047000.3,N
1583197415.4,286047000.6,N
1583197435.3,286047000.8,N
1583197455.1,286047000.8,N
1583197475.9,286047000.9,N
1583197495.7,286047000.9,N
1583197515.5,286047000.0,N
1583197535.4,286047002.1,N
1583197555.2,286047002.0,N
1583197575.0,286047004.4,N
1583197575.9,286047004.4,N
1583197595.8,286047001.6,N
1583197615.6,286047004.2,N
1583197635.5,286047003.9,N
1583197655.3,286047003.7,N
1583197675.1,286047005.6,Y
1583197695.9,286047001.7,P
1583197715.7,286047002.0,P
1583197735.6,286047002.6,P
1583197755.4,286047002.8,Y
1583197775.2,286046998.8,P
1583197795.1,286046999.6,N
1583197796.0,286046999.6,N
1583197815.8,286046997.9,N
1583197835.6,286046997.6,N
1583197855.5,286046995.3,Y
1583197875.3,286046997.0,P
1583197895.2,286046998.8,N
1583197915.9,286046998.9,N
1583197935.7,286046997.8,N
1583197955.6,286046998.8,N
1583197975.4,286046998.8,N
1583197995.3,286046998.2,N
1583198015.1,286047002.4,Y
1583198035.8,286047001.6,P
1583198055.7,286047002.4,N
1583198075.5,286046998.1,N
1583198095.4,286046998.5,N
1583198115.2,286047002.1,N
1583198135.0,286047000.5,N
1583198135.9,286047000.5,N
1583198155.8,286046998.6,N
1583198175.6,286046998.2,N
1583198195.4,286047000.7,N
1583198215.3,286046999.5,N
1583198235.1,286046999.7,N
1583198255.9,286047002.1,N
1583198275.7,286047002.5,N
1583198295.5,286046999.9,N
1583198315.4,286047002.6,N
1583198335.2,286047001.5,N
1583198355.1,286047001.4,N
1583198356.0,286047001.4,N
1583198375.8,286047001.8,N
1583198395.6,286047002.0,N
1583198415.5,286047004.4,N
1583198435.3,286047002.3,N
1583198455.1,286047003.9,N
1583198475.9,286047003.9,N
1583198495.7,286047001.5,N
1583198515.6,286047003.0,N
1583198535.4,286046999.8,N
1583198555.2,286047000.1,N
1583198575.1,286047001.5,N
1583198576.0,286047001.5,N
1583198595.8,286047004.3,N
1583198615.7,286047002.5,N
1583198635.5,286047002.8,N
1583198655.3,286047001.0,N
1583198675.2,286047002.6,N
1583198695.0,286046999.8,N
1583198695.9,286046999.8,N
1583198715.8,286047000.5,N
1583198735.6,286046999.7,N
1583198755.4,286046999.4,N
1583198775.3,286047000.8,N
1583198795.1,286046998.6,N
1583198815.8,286046999.1,N
1583198835.7,286047000.6,N
1583198855.5,286046999.9,N
1583198875.4,286046998.3,N
1583198895.2,286047000.8,N
1583198915.0,286047001.0,N
1583198915.9,286047001.0,N
1583198935.8,286046999.7,N
1583198955.6,286047000.5,N
1583198975.5,286047002.5,N
1583198995.3,286047000.7,N
1583199015.1,286046996.5,N
1583199035.9,286046999.1,N
1583199055.7,286047000.5,N
1583199075.5,286047001.0,N
1583199095.4,286046998.9,N
1583199115.2,286046999.2,N
1583199135.1,286046996.5,N
1583199136.0,286046996.5,N
1583199155.8,286047000.5,N
1583199175.6,286046998.1,N
1583199195.5,286046999.6,N
1583199215.3,286046998.6,N
1583199235.2,286046998.1,N
1583199255.9,286047001.1,N
1583199275.7,286047000.3,N
1583199295.6,286047001.8,N
1583199315.4,286047002.1,N
1583199335.2,286047002.8,N
1583199355.1,286047002.5,N
1583199356.0,286047002.5,N
1583199375.8,286047002.3,N
1583199395.7,286047004.3,N
1583199415.5,286047002.3,N
1583199435.3,286046999.8,N
1583199455.2,286047002.7,N
1583199475.0,286047000.0,N
1583199475.9,286047000.0,N
1583199495.8,286047000.4,N
1583199515.6,286047000.6,N
1583199535.4,286047000.3,N
1583199555.3,286047002.2,N
1583199575.1,286047002.8,N
1583199595.8,286047002.7,N
1583199615.7,286047001.4,N
1583199635.5,286047002.1,N
1583199655.4,286047002.7,N
1583199675.2,286046998.3,N
1583199695.0,286046999.1,N
1583199695.9,286046999.1,N
1583199715.8,286047001.1,N
1583199735.6,286046998.4,N
1583199755.5,286046998.2,N
1583199775.3,286047000.0,N
1583199795.1,286047000.1,N
1583199815.9,286047000.1,N
1583199835.7,286047001.1,N
1583199855.5,286047001.2,N
1583199875.4,286047000.6,N
1583199895.2,286047000.9,N
1583199915.1,286046998.6,N
1583199916.0,286046998.6,N
1583199935.8,286046997.8,N
1583199955.6,286046997.7,N
1583199975.5,286046996.7,N
1583199995.3,286046995.4,N
1583200015.2,286046997.3,N
1583200035.9,286046995.3,N
1583200055.7,286046997.5,N
1583200075.6,286046997.8,N
1583200095.4,286046998.0,N
1583200115.2,286046995.9,N
1583200135.1,286046995.7,N
1583200136.0,286046995.7,N
1583200155.8,286046996.2,N
1583200175.7,286046994.9,N
1583200195.5,286046997.0,N
1583200215.3,286046997.0,N
1583200235.2,286046997.8,N
1583200255.0,286046996.3,N
1583200255.9,286046996.3,N
1583200275.8,286046993.7,Y
1583200295.6,286046995.2,P
1583200315.5,286046997.6,N
1583200335.3,286046997.8,N
1583200355.1,286046999.1,N
1583200375.9,286046997.3,N
1583200395.7,286046997.6,N
1583200415.6,286046995.1,Y
1583200435.4,286046998.7,P
1583200455.2,286046998.8,N
1583200475.1,286046998.8,N
1583200476.0,286046998.8,N
1583200495.8,286046998.5,N
1583200515.7,286046999.1,N
1583200535.5,286046996.9,Y
1583200555.3,286047001.1,P
1583200575.2,286046998.8,N
1583200595.0,286046998.3,N
1583200595.9,286046998.3,N
1583200615.8,286046997.0,N
1583200635.6,286046998.9,N
1583200655.4,286046998.6,N
1583200675.3,286046998.5,N
1583200695.1,286046999.2,N
1583200715.8,286046997.3,N
1583200735.7,286046996.6,Y
1583200755.5,286046998.2,P
1583200775.4,286046999.3,P
1583200795.2,286046996.9,P
